Weather History for Wiscasset, ME

Change the Weather History Date:

Thursday, July 3, 2014

  Actual Average Record
Temperature  
Mean Temperature 72 °F -  
Max Temperature 81 °F 75 °F 96 °F (2002)
Min Temperature 64 °F 54 °F 45 °F (2001)
Cooling Degree Days 7    
Growing Degree Days 22 (Base 50)    
Moisture  
Dew Point 67 °F    
Average Humidity 92    
Maximum Humidity 100    
Minimum Humidity 72    
Precipitation  
Precipitation 0.06 in - - ()
Sea Level Pressure  
Sea Level Pressure 29.95 in    
Wind  
Wind Speed 2 mph (South)    
Max Wind Speed 8 mph    
Max Gust Speed -    
Visibility 5 miles    
Events Fog , Rain , Thunderstorm    
Averages and records for this station are not official NWS values.
T = Trace of Precipitation, MM = Missing Value Source: NWS Daily Summary

Daily Weather History Graph

Daily Weather History Graph

Search for Another Location

Airport:

Trip Planner

Search our weather history database for the weather conditions in past years. The results will help you decide how hot, cold, wet, or windy it might be!

Date:

Astronomy

Jul. 03, 2014 Rise Set
Actual Time 5:01 AM EDT 8:24 PM EDT
Civil Twilight 4:25 AM EDT 9:00 PM EDT
Nautical Twilight 3:38 AM EDT 9:47 PM EDT
Astronomical Twilight 2:38 AM EDT 10:46 PM EDT
Moon 11:10 AM EDT (7/3) 11:31 PM EDT (7/3)
Length of Visible Light 16h 35m
Length of Day
15h 23m
Waxing Crescent, 33% of the Moon is Illuminated
Jul 3
Waxing Crescent
Jul 5
First Quarter
Jul 12
Full
Jul 18
Last Quarter
Jul 26
New

Hourly Weather History & Observations

Time (EDT) Temp. Heat Index Dew Point Humidity Pressure Visibility Wind Dir Wind Speed Gust Speed Precip Events Conditions
12:04 AM 68.0 °F - 66.0 °F 93% 29.92 in 8.0 mi Calm Calm - N/A   Scattered Clouds
12:53 AM 66.9 °F - 64.9 °F 93% 29.92 in 5.0 mi Calm Calm - N/A   Clear
1:46 AM 66.9 °F - 64.9 °F 93% 29.91 in 7.0 mi SE 3.5 mph - N/A   Scattered Clouds
1:53 AM 66.9 °F - 64.9 °F 93% 29.91 in 7.0 mi East 3.5 mph - N/A   Mostly Cloudy
2:04 AM 66.9 °F - 64.9 °F 93% 29.91 in 6.0 mi Calm Calm - N/A   Mostly Cloudy
2:53 AM 66.0 °F - 64.9 °F 96% 29.91 in 3.0 mi SSE 3.5 mph - N/A   Overcast
3:03 AM 66.0 °F - 64.9 °F 96% 29.91 in 2.0 mi Calm Calm - N/A   Overcast
3:10 AM 66.0 °F - 64.9 °F 96% 29.91 in 1.2 mi Calm Calm - N/A   Overcast
3:53 AM 66.0 °F - 64.0 °F 93% 29.91 in 1.0 mi Calm Calm - N/A   Mist
4:08 AM 66.0 °F - 64.9 °F 96% 29.92 in 0.5 mi Calm Calm - N/A Fog Fog
4:30 AM 64.9 °F - 64.0 °F 97% 29.92 in 1.2 mi SSE 4.6 mph - N/A   Overcast
4:53 AM 64.0 °F - 63.0 °F 96% 29.93 in 1.5 mi Calm Calm - N/A   Overcast
5:01 AM 64.0 °F - 63.0 °F 96% 29.93 in 2.5 mi Calm Calm - N/A   Overcast
5:07 AM 64.9 °F - 63.0 °F 93% 29.93 in 1.0 mi Calm Calm - N/A   Mist
5:14 AM 64.9 °F - 63.0 °F 93% 29.93 in 0.2 mi Calm Calm - N/A Fog Fog
5:53 AM 64.9 °F - 64.0 °F 97% 29.94 in 0.2 mi Calm Calm - N/A Fog Fog
6:12 AM 64.9 °F - 64.0 °F 97% 29.95 in 1.5 mi Calm Calm - N/A   Overcast
6:16 AM 64.9 °F - 64.0 °F 97% 29.95 in 3.0 mi Calm Calm - N/A   Overcast
6:53 AM 66.9 °F - 64.9 °F 93% 29.97 in 4.0 mi Calm Calm - N/A   Overcast
7:53 AM 68.0 °F - 66.0 °F 93% 29.97 in 4.0 mi Variable 4.6 mph - N/A   Overcast
8:53 AM 72.0 °F - 69.1 °F 91% 29.96 in 10.0 mi South 4.6 mph - N/A   Overcast
9:09 AM 73.0 °F - 69.1 °F 87% 29.96 in 10.0 mi South 3.5 mph - N/A   Overcast
10:07 AM 75.9 °F - 69.1 °F 79% 29.96 in 10.0 mi Calm Calm - N/A   Overcast
10:53 AM 78.1 °F - 71.1 °F 79% 29.96 in 10.0 mi Calm Calm - N/A   Mostly Cloudy
11:23 AM 79.0 °F - 70.0 °F 74% 29.97 in 10.0 mi South 4.6 mph - N/A   Scattered Clouds
11:53 AM 80.1 °F 83.6 °F 71.1 °F 74% 29.97 in 10.0 mi Variable 5.8 mph - N/A   Clear
12:53 PM 79.0 °F - 69.1 °F 72% 29.98 in 10.0 mi South 6.9 mph - N/A   Scattered Clouds
1:53 PM 78.1 °F - 70.0 °F 76% 29.98 in 10.0 mi South 8.1 mph - N/A   Partly Cloudy
3:20 PM 75.0 °F - 70.0 °F 84% 29.99 in 10.0 mi Variable 4.6 mph - N/A   Mostly Cloudy
3:43 PM 75.0 °F - 71.1 °F 87% 30.00 in 10.0 mi South 6.9 mph - N/A Thunderstorm Overcast
3:53 PM 75.0 °F - 71.1 °F 87% 29.99 in 9.0 mi SSW 5.8 mph - N/A Thunderstorm Overcast
3:58 PM 75.0 °F - 71.1 °F 87% 29.99 in 7.0 mi Variable 3.5 mph - 0.00 in Rain , Thunderstorm Light Rain
4:08 PM 73.9 °F - 71.1 °F 91% 29.98 in 4.0 mi Calm Calm - 0.01 in Rain , Thunderstorm Light Rain
4:15 PM 73.9 °F - 71.1 °F 91% 29.97 in 4.0 mi Calm Calm - 0.02 in Rain Light Rain
4:53 PM 75.0 °F - 72.0 °F 90% 29.95 in 6.0 mi Calm Calm - 0.03 in   Mostly Cloudy
5:04 PM 75.0 °F - 72.0 °F 90% 29.95 in 10.0 mi South 4.6 mph - N/A   Scattered Clouds
5:53 PM 73.9 °F - 71.1 °F 91% 29.94 in 10.0 mi Calm Calm - N/A   Partly Cloudy
6:22 PM 73.9 °F - 71.1 °F 91% 29.93 in 9.0 mi SSE 4.6 mph - N/A   Mostly Cloudy
6:31 PM 73.0 °F - 71.1 °F 93% 29.93 in 8.0 mi South 4.6 mph - N/A   Overcast
6:53 PM 71.1 °F - 69.1 °F 93% 29.94 in 5.0 mi South 8.1 mph - N/A   Overcast
7:13 PM 68.0 °F - 66.9 °F 96% 29.94 in 2.5 mi SSW 4.6 mph - N/A   Overcast
7:25 PM 68.0 °F - 66.9 °F 96% 29.94 in 1.2 mi Calm Calm - N/A   Overcast
7:37 PM 68.0 °F - 66.9 °F 96% 29.95 in 0.5 mi Calm Calm - 0.00 in Fog , Rain Light Rain
7:53 PM 68.0 °F - 66.9 °F 96% 29.94 in 0.2 mi Calm Calm - 0.01 in Fog Fog
8:28 PM 68.0 °F - 66.9 °F 96% 29.93 in 1.5 mi East 3.5 mph - 0.02 in Rain Light Rain
8:41 PM 68.0 °F - 66.9 °F 96% 29.93 in 1.0 mi WNW 3.5 mph - 0.02 in   Mist
8:53 PM 68.0 °F - 66.9 °F 96% 29.93 in 1.0 mi Variable 3.5 mph - 0.02 in   Mist
9:01 PM 68.0 °F - 66.9 °F 96% 29.93 in 0.8 mi Calm Calm - N/A   Mist
9:53 PM 68.0 °F - 66.9 °F 96% 29.94 in 0.5 mi Variable 3.5 mph - N/A Fog Fog
10:53 PM 66.0 °F - 64.9 °F 96% 29.99 in 1.0 mi SW 8.1 mph - N/A   Mist
11:11 PM 66.0 °F - 66.0 °F 100% 29.98 in 1.8 mi Calm Calm - N/A   Overcast
11:19 PM 66.9 °F - 66.0 °F 97% 29.97 in 3.0 mi Calm Calm - N/A   Overcast
11:53 PM 66.9 °F - 66.0 °F 97% 29.96 in 6.0 mi Variable 3.5 mph - 0.00 in Rain Light Rain